#timestamp,LO_Frequency,Hit,StdDev 
1600264815.5,286047001.2,N
1600264835.3,286046999.3,N
1600264855.2,286046998.4,N
1600264875.0,286046998.3,N
1600264875.9,286046998.3,N
1600264895.8,286047001.2,N
1600264915.6,286046999.9,N
1600264935.4,286046998.2,N
1600264955.3,286046999.4,N
1600264975.1,286046998.1,N
1600264995.9,286046998.2,N
1600265015.7,286047001.1,N
1600265035.5,286047000.2,N
1600265055.4,286047001.0,N
1600265075.2,286047000.9,N
1600265095.0,286047001.0,N
1600265095.9,286047001.0,N
1600265115.8,286047000.7,N
1600265135.6,286047000.1,N
1600265155.5,286047000.0,N
1600265175.3,286046999.7,N
1600265195.1,286047000.9,N
1600265215.9,286046999.8,N
1600265235.7,286046999.3,N
1600265255.6,286046999.5,N
1600265275.4,286046998.8,N
1600265295.2,286046997.1,N
1600265315.1,286046996.6,Y
1600265316.0,286046996.6,P
1600265335.8,286047000.8,N
1600265355.6,286047001.1,N
1600265375.5,286046999.8,N
1600265395.3,286047002.7,N
1600265415.2,286047002.4,N
1600265435.9,286047002.3,N
1600265455.7,286047000.9,N
1600265475.6,286047000.4,N
1600265495.4,286047001.4,N
1600265515.3,286047002.4,N
1600265535.1,286047002.0,N
1600265536.0,286047002.0,N
1600265555.8,286047002.0,N
1600265575.7,286047002.4,N
1600265595.5,286047001.3,N
1600265615.3,286047001.3,N
1600265635.2,286047002.5,N
1600265655.0,286047003.9,N
1600265655.9,286047003.9,N
1600265675.8,286047001.8,N
1600265695.6,286047000.0,N
1600265715.4,286047000.4,N
1600265735.3,286047000.0,N
1600265755.1,286046998.4,N
1600265775.9,286047000.8,N
1600265795.7,286046998.9,N
1600265815.5,286046999.3,N
1600265835.4,286046996.9,N
1600265855.2,286046997.1,N
1600265875.0,286046996.5,N
1600265875.9,286046996.5,N
1600265895.8,286046999.2,N
1600265915.6,286046998.6,N
1600265935.5,286046999.3,N
1600265955.3,286046999.0,N
1600265975.1,286046998.2,N
1600265995.9,286046999.6,N
1600266015.7,286046997.6,N
1600266035.5,286046997.2,N
1600266055.4,286046995.2,N
1600266075.2,286046993.7,N
1600266095.1,286046993.5,N
1600266096.0,286046993.5,N
1600266115.8,286046994.6,N
1600266135.6,286046993.5,N
1600266155.5,286046996.4,N
1600266175.3,286046996.3,N
1600266195.1,286046994.1,N
1600266215.9,286046993.6,N
1600266235.7,286046993.6,N
1600266255.6,286046993.3,N
1600266275.4,286046993.7,N
1600266295.2,286046996.3,N
1600266315.1,286046993.9,N
1600266316.0,286046993.9,N
1600266335.8,286046993.7,N
1600266355.7,286046996.3,N
1600266375.5,286046993.5,Y
1600266395.3,286046996.5,P
1600266415.2,286046996.5,P
1600266435.0,286046998.8,P
1600266435.9,286046998.8,N
1600266455.7,286046999.5,N
1600266475.6,286046998.7,N
1600266495.4,286046999.4,N
1600266515.3,286046997.8,N
1600266535.1,286046999.2,N
1600266536.0,286046999.2,N
1600266555.8,286046997.1,N
1600266575.7,286046998.0,N
1600266595.5,286046995.4,Y
1600266615.3,286046997.0,P
1600266635.2,286046997.1,P
1600266655.0,286046997.0,P
1600266655.9,286046997.0,Y
1600266675.8,286047000.8,P
1600266695.6,286046998.1,N
1600266715.4,286046998.3,N
1600266735.3,286046996.6,N
1600266755.1,286046996.6,N
1600266775.9,286046996.9,N
1600266795.7,286046998.2,N
1600266815.5,286046998.5,N
1600266835.4,286046999.4,N
1600266855.2,286046998.2,N
1600266875.0,286047001.1,N
1600266875.9,286047001.1,N
1600266895.8,286046998.3,N
1600266915.6,286046998.7,N
1600266935.5,286046998.1,N
1600266955.3,286046998.1,N
1600266975.1,286047001.1,N
1600266995.9,286046998.1,N
1600267015.7,286047001.0,N
1600267035.5,286047000.7,N
1600267055.4,286047000.9,N
1600267075.2,286047000.7,N
1600267095.1,286047000.4,N
1600267096.0,286047000.4,N
1600267115.8,286047000.4,N
1600267135.6,286046999.7,N
1600267155.5,286046999.8,N
1600267175.3,286047000.4,N
1600267195.1,286047000.6,N
1600267215.9,286047000.4,N
1600267235.7,286047000.1,N
1600267255.6,286047002.4,N
1600267275.4,286047002.2,N
1600267295.2,286047002.4,N
1600267315.1,286047002.3,N
1600267316.0,286047002.3,N
1600267335.8,286047002.5,N
1600267355.6,286047002.3,N
1600267375.5,286046999.9,N
1600267395.3,286046999.9,N
1600267415.2,286047000.5,N
1600267435.9,286046999.9,N
1600267455.7,286047000.0,N
1600267475.6,286047002.8,N
1600267495.4,286047002.6,N
1600267515.2,286047002.8,N
1600267535.1,286047002.2,N
1600267536.0,286047002.2,N
1600267555.8,286047001.8,N
1600267575.7,286047004.3,Y
1600267595.5,286047000.0,P
1600267615.3,286047000.5,N
1600267635.2,286047001.1,N
1600267655.0,286047000.1,N
1600267655.9,286047000.1,N
1600267675.7,286047002.8,Y
1600267695.6,286047002.7,P
1600267715.4,286046998.5,N
1600267735.3,286047000.5,N
1600267755.1,286047001.0,N
1600267756.0,286047001.0,N
1600267775.8,286047000.9,N
1600267795.7,286047000.4,N
1600267815.5,286047000.6,N
1600267835.3,286047002.3,N
1600267855.2,286046999.8,N
1600267875.0,286047002.7,N
1600267875.9,286047002.7,N
1600267895.8,286047002.5,N
1600267915.6,286047004.3,Y
1600267935.4,286047000.1,P
1600267955.3,286047001.8,P
1600267975.1,286047000.0,N
1600267995.9,286047000.1,N
1600268015.7,286047001.3,N
1600268035.5,286047002.8,Y
1600268055.4,286047002.7,P
1600268075.2,286047002.3,N
1600268095.0,286047000.3,N
1600268095.9,286047000.3,N
1600268115.8,286047002.6,N
1600268135.6,286047002.3,N
1600268155.5,286047003.9,Y
1600268175.3,286047000.6,P
1600268195.1,286047000.2,N
1600268215.9,286046998.5,N
1600268235.7,286046998.5,N
1600268255.5,286047000.9,N
1600268275.4,286047001.0,N
1600268295.2,286047002.2,N
1600268315.1,286046999.7,N
1600268316.0,286046999.7,N
1600268335.8,286047002.3,N
1600268355.6,286047000.1,N
1600268375.5,286047000.8,N
1600268395.3,286046998.4,N
